Airfield :
LOGIN :

Register | Disclaimer

   EN    FR    IT 

 










Legend :    VFR   Marginal VFR   IFR   Intensive IFR   Very Intensive IFR
Visi :
Ceiling :
>= 8 km
>= 3000ft
5 to 8 km
1000 to 3000 ft
1500m to 5 km
500 to 1000 ft
800 to 1500m
200 to 500 ft
< 800m
< 200 ft
Symbols :   Thunderstorms  Fog  Heavy snow  Heavy precipitations  Wind > 20 kt
SIGMETs :     Misc.  Thunderstorms  Icing  Turbulence  Mountain Waves  Volcanic Ashes






- Airport Elevation : 100 ft
- IATA code : DCI


LIED - Decimomannu Air Base

CURRENT METAR :
  • 281355Z 16011KT 9999 FEW040 26/10 Q1022 RMK FEW VIS MIN 9999 WIND THR35 16010KT WIND THR17 /////KT BLU

EXPIRED METARs :
  • 281255Z 15010KT 9999 FEW030 26/08 Q1022 RMK FEW VIS MIN 9999 WIND THR35 15010KT WIND THR17 /////KT BLU
  • 281155Z 16008KT 9999 FEW030 26/07 Q1023 RMK FEW VIS MIN 9999 WIND THR35 15008KT WIND THR17 /////KT BLU

TAF TAF LIED
Valid from the 28 at 15:00 until the 29 at 00:00 UTC


281400Z 2815/2824 15010KT 9999 FEW040



MET'MAP, your aeronautical weather chart ! - Copyright ORBIFLY December 2007 - Disclaimer

ORBIFLY MET'MAP TEAM :

Programming & Development : Alexandra Zaïnal
Concept & original design : Baudouin d'Aumeries
Assistance for programming : Marc-Olivier Méhu
Technical & hardware support : Manuel Goepfert

Contact : metmap@orbifly.com




SOURCES & CREDITS :

   NOAA